Location: Artiguedieu
(43.5000°N, 0.5454°E)
Time: 00:44:38
(UTC+00:00)

Transit 2A Rocket - Pass Details

Date: 29 July 2021
Orbit: 586 x 916 km, 66.7° (Epoch: 16 September)

Event Time Altitude Azimuth Distance (km) Brightness Sun altitude
Rises 22:54:17 0° 331° (NNW) 3,248 9.5 -25.9°
Reaches altitude 10° 22:56:40 10° 336° (NNW) 2,368 8.5 -26.1°
Maximum altitude 23:02:04 56° 55° (NE) 995 5.6 -26.4°
Enters shadow 23:02:59 50° 91° (E) 1,070 5.5 -26.4°
Drops below altitude 10° 23:07:52 10° 133° (SE) 2,542 - -26.7°
Sets 23:10:29 0° 138° (SE) 3,506 - -26.8°
